Location: An Tulaigh
(53.1928°N, 8.1647°W)
Time: 00:37:11
(UTC+00:00)

MOS 1-B - Pass Details

Date: 15 May 2026
Orbit: 904 x 911 km, 99.2° (Epoch: 9 June)

Event Time Altitude Azimuth Distance (km) Brightness Sun altitude
Exits shadow 21:13:19 - 163° (SSE) 3,204 6.7 -6.4°
Reaches altitude 10° 21:14:53 10° 164° (SSE) 2,592 6.2 -6.5°
Maximum altitude 21:20:41 85° 253° (WSW) 923 4.5 -7.2°
Drops below altitude 10° 21:26:33 10° 343° (NNW) 2,612 7.9 -7.8°
Sets 21:28:58 0° 344° (NNW) 3,558 8.7 -8.0°
